Location: Commissiepolle
(52.8679°N, 5.7941°E)
Time: 23:30:52
(UTC+00:00)

Daily predictions for brighter satellites

Satellite Brightness Start Highest point End
(mag) Time Altitude Azimuth Time Altitude Azimuth Time Altitude Azimuth
NOSS 3-4 (A) 4.5 15:50:38 10° WNW 15:56:13 34° N 16:02:23 10° ENE
NOSS 3-4 (C) 4.5 15:50:44 10° WNW 15:56:18 34° N 16:02:28 10° ENE
ATLAS 2AS CENTAUR R/B 3.6 15:51:18 10° W 15:58:44 45° NNW 16:05:49 10° NE
SeaSat 1 2.7 15:54:15 10° NNE 15:59:12 73° NW 16:04:07 10° SW
CZ-4C R/B 3.5 15:55:43 10° NNE 15:59:31 49° E 16:03:05 10° S
Cosmos 990 Rocket 4.0 15:57:20 10° NNW 16:02:36 82° ENE 16:07:46 10° SSE
USA 308 2.9 15:58:26 10° W 16:02:42 81° N 16:06:59 10° E
NOSS 2-1 (C) 3.4 16:00:24 10° WSW 16:03:33 53° NW 16:07:02 10° NE
Lacrosse 5 rocket 1.5 16:00:29 10° WNW 16:04:11 50° NNE 16:08:06 10° E
COSMOS 2455 4.2 16:00:09 10° SSE 16:04:24 20° ESE 16:08:40 10° ENE
Cosmos 2034 Rocket 4.2 15:59:19 10° SSE 16:05:10 48° E 16:11:05 10° NNE
Cosmos 372 Rocket 4.5 16:00:21 10° NNW 16:05:14 38° NE 16:10:07 10° ESE
SMAP 3.5 16:01:51 10° SE 16:06:09 38° ENE 16:10:29 10° N
Cosmos 2360 Rocket 3.8 16:02:44 10° NNW 16:06:15 16° NNE 16:09:45 10° ENE
ATLAS CENTAUR R/B 4.2 15:58:01 10° SSW 16:07:25 36° SE 16:11:46 10° ENE
Cosmos 1656 4.2 16:03:27 10° NW 16:08:56 65° WSW 16:14:28 10° SSE
MINOTAUR 4 R/B 4.2 16:06:58 10° NNE 16:10:32 76° WNW 16:14:03 10° SSW
Cosmos 44 Rocket 4.0 16:06:19 10° NW 16:10:54 34° NNE 16:15:21 10° E
Cosmos 1633 Rocket 4.5 16:08:25 10° NNE 16:11:24 18° ENE 16:14:22 10° ESE
SL-24 R/B - RUBIN 2 3.6 16:08:05 10° NW 16:12:45 61° NE 16:17:05 10° ESE
NOSS 2-1 (D) 3.6 16:09:47 10° WSW 16:12:55 45° NW 16:16:22 10° NE
NOSS 3-1 (A) 4.4 16:05:52 10° NW 16:13:07 75° SW 16:21:42 10° SE
USA 234 3.4 16:06:56 10° ESE 16:13:30 88° SSW 16:20:05 10° WNW
ISS -3.0 16:11:27 10° W 16:14:47 54° SSW 16:18:06 10° ESE
Cosmos 1408 Rocket 3.8 16:13:32 10° NNW 16:17:54 77° W 16:22:17 10° S
NOSS 2-2 (D) 4.1 16:13:12 10° NW 16:17:56 73° NE 16:24:31 10° SE
NOSS 2-2 (E) 4.2 16:13:09 10° NW 16:18:03 83° NE 16:24:56 10° SE
NOAA 6 4.2 16:13:23 10° SE 16:18:20 51° ENE 16:23:18 10° N
YAOGAN 1 4.4 16:19:40 10° ENE 16:20:28 11° NE 16:21:31 10° NE
Cosmos 1666 4.0 16:18:00 10° NNE 16:20:39 18° ENE 16:23:16 10° ESE
Cosmos 2026 Rocket 4.1 16:18:53 10° N 16:24:52 50° ENE 16:30:45 10° SSE
Cosmos 1743 Rocket 3.4 16:22:53 10° N 16:27:14 76° ENE 16:31:34 10° SSE
Cosmos 2322 Rocket 3.3 16:23:03 10° NNW 16:27:36 23° NE 16:32:02 10° E
PSLV R/B 4.4 16:24:55 10° SE 16:28:14 32° ENE 16:31:38 10° N
Cosmos 2195 Rocket 4.5 16:22:36 10° N 16:28:43 61° ENE 16:34:50 10° SSE
USA 305 2.9 16:24:31 10° W 16:28:46 75° N 16:32:40 12° E
Cosmos 1697 Rocket 2.8 16:23:18 10° NNW 16:28:57 84° WSW 16:34:35 10° SSE
Cosmos 858 Rocket 4.5 16:25:01 10° NNW 16:30:21 72° ENE 16:35:37 10° SSE
CZ-4B R/B 2.8 16:26:55 10° SSE 16:30:54 89° WSW 16:34:42 10° NNW
Cosmos 1933 3.8 16:28:07 10° SSE 16:31:53 39° E 16:35:39 10° NNE
Cosmos 1980 Rocket 2.2 16:28:03 10° NNW 16:33:44 64° NE 16:39:20 10° SE
SL-08 R/B 3.3 16:29:17 10° NNE 16:34:03 82° ESE 16:38:41 10° SSW
Cosmos 1271 Rocket 4.3 16:31:42 10° SW 16:35:23 36° WNW 16:39:07 10° N
Okean O Rocket 2.6 16:34:23 10° ESE 16:37:59 25° ENE 16:41:36 10° N
Cosmos 2369 3.7 16:32:19 10° NNW 16:38:06 81° ENE 16:43:51 10° SE
SJ 16-02 4.4 16:35:12 10° NW 16:38:09 18° W 16:41:05 10° SW
Cosmos 1666 Rocket 4.2 16:34:23 10° N 16:38:27 33° ENE 16:42:26 10° SE
Cosmos 540 Rocket 3.9 16:34:33 10° S 16:39:18 40° ESE 16:43:47 11° NE
FengYun 1-2 T 4.2 16:33:56 10° SSE 16:39:31 87° ENE 16:45:05 10° NNW
Cosmos 1809 Rocket 4.4 16:36:18 10° N 16:42:25 71° ENE 16:48:29 10° SSE
MOS 1-B 4.5 16:38:29 10° SE 16:44:03 52° ENE 16:49:40 10° N
SL-16 R/B 2.9 16:41:18 10° NNW 16:46:24 32° NE 16:51:23 10° ESE
Meteor PRIRODA 4.4 16:43:38 10° S 16:47:12 55° W 16:50:47 10° NNW
Cosmos 1812 3.9 16:44:11 10° SE 16:47:17 23° E 16:48:49 18° NE
ERBS 2.7 16:44:43 10° W 16:47:50 45° NNW 16:49:40 21° NE
Cosmos 2237 Rocket 4.2 16:45:39 10° NNW 16:47:56 12° N 16:50:12 10° NNE
NOAA 12 4.5 16:42:45 10° S 16:48:04 71° WSW 16:53:24 10° NNW
CORIOLIS 4.1 16:46:07 10° SSE 16:51:31 81° ENE 16:56:59 10° NNW
Cosmos 2082 Rocket 2.8 16:48:02 10° S 16:53:10 36° ESE 16:56:54 17° NE
Meteor 1-25 Rocket 4.4 16:48:24 10° NNW 16:53:59 78° W 16:59:35 10° S
Cosmos 1500 Rocket 4.3 16:50:57 10° NNW 16:55:19 57° W 16:59:38 10° S
Cosmos 468 Rocket 3.9 16:53:09 10° SSW 16:58:19 86° ESE 17:03:28 11° NNE
Cosmos 2333 Rocket 3.7 16:54:57 10° NNW 16:59:01 19° NNE 17:00:43 17° NE
MOS 1-B Rocket 4.5 16:54:38 10° NNE 17:00:10 41° E 17:06:21 10° SSE
USA 306 2.8 16:56:43 10° W 17:00:59 76° N 17:03:33 23° E
Cosmos 2278 3.6 16:56:02 10° NNW 17:01:47 74° ENE 17:07:28 10° SE
Cosmos 1602 4.0 16:58:37 10° NNW 17:02:29 72° W 17:06:20 10° S
Sich 1 2.9 16:58:19 10° N 17:02:38 87° E 17:06:57 10° S
Cosmos 1818 3.6 16:57:29 10° NW 17:02:57 63° NE 17:08:23 10° ESE
CZ-4B DEB 4.2 16:58:52 10° SSE 17:04:24 88° ENE 17:09:55 10° NNW
Cosmos 2221 3.9 17:01:43 10° SW 17:05:44 39° WNW 17:09:49 10° N
Cosmos 1939 Rocket 3.5 17:02:01 10° S 17:06:05 61° W 17:10:07 10° NNW
Cosmos 1805 Rocket 3.8 17:02:57 10° NNW 17:07:17 69° W 17:11:36 10° S
SL-16 R/B 4.3 17:05:00 10° NW 17:07:31 13° N 17:10:03 10° NNE
ARGOS 3.4 17:02:38 10° SE 17:07:47 47° ENE 17:12:57 10° N
Cosmos 1833 Rocket 2.7 17:07:14 10° SSW 17:12:52 89° ESE 17:17:32 16° NNE
COSMOS 2406 3.2 17:11:03 10° SSW 17:16:47 78° ESE 17:21:11 18° NE
GEOS 3 Rocket 3.8 17:13:44 20° E 17:17:06 51° NE 17:22:08 10° NW
deb Chang Zheng 4 3.5 17:14:49 10° SSE 17:19:03 59° ENE 17:23:19 10° N
Cosmos 2219 Rocket 3.6 17:15:51 10° NNW 17:19:56 20° NNE 17:20:36 19° NE
USA 307 2.8 17:15:55 10° W 17:20:11 79° N 17:21:59 34° E
USA 267 3.3 17:16:34 23° ENE 17:20:55 71° SSE 17:27:27 10° SW
Cosmos 1782 2.7 17:20:25 10° S 17:24:24 89° SSE 17:27:48 14° N
CZ-2C R/B 2.8 17:21:47 19° NNE 17:25:18 44° E 17:30:13 10° S
Cosmos 1500 3.8 17:23:29 10° NNW 17:27:11 57° W 17:30:50 10° S
Cosmos 2150 Rocket 4.0 17:23:47 10° NNW 17:28:52 54° ENE 17:33:12 14° SE
CZ-4C R/B 3.1 17:22:30 10° NW 17:29:29 75° SW 17:37:47 10° SE
Cosmos 1763 Rocket 4.0 17:24:50 10° SW 17:29:50 56° WNW 17:34:18 13° NNE
SL-08 RB Rocket 3.9 17:25:41 10° SE 17:30:07 47° ENE 17:34:32 10° N
Meteor 2-16 Rocket 4.4 17:24:12 10° N 17:30:21 84° E 17:36:30 10° SSE
CZ-2D R/B 3.6 17:26:41 10° S 17:30:29 66° WSW 17:34:18 10° NNW
H-2A R/B 4.2 17:32:54 17° NNE 17:32:54 17° NNE 17:34:06 10° N
Meteor 2-6 Rocket 4.4 17:27:53 10° SSE 17:33:22 49° E 17:36:56 21° NNE
H-2A R/B 2.1 17:28:38 10° S 17:33:46 77° WSW 17:38:49 10° NNW
CZ-4B R/B 3.1 17:29:46 10° SSE 17:35:10 87° ENE 17:40:32 10° NNW
SeaSat 1 4.4 17:32:26 10° NNE 17:36:05 21° NW 17:39:43 10° W
Cosmos 841 Rocket 3.4 17:31:58 10° SSW 17:37:08 87° ESE 17:40:22 23° NNE
ATLAS CENTAUR R/B 3.4 17:34:29 10° WNW 17:37:54 21° N 17:39:25 18° NNE
YAOGAN 3 4.4 17:35:44 10° SSE 17:40:06 78° ENE 17:44:29 10° NNW
COSMO-SKYMED 1 2.6 17:41:39 44° NE 17:42:42 57° E 17:46:58 10° S
USA 308 2.8 17:38:28 10° WNW 17:42:44 85° N 17:43:39 55° E
Lacrosse 5 rocket 1.5 17:39:34 10° WNW 17:43:25 67° SSW 17:44:49 38° SE
Cosmos 1125 Rocket 3.4 17:38:51 10° NNW 17:44:05 64° ENE 17:47:32 22° SE
Cosmos 2237 4.4 17:39:12 10° NNW 17:44:44 47° NE 17:46:08 40° E
Cosmos 2142 Rocket 4.4 17:40:08 10° S 17:46:18 83° E 17:52:35 10° NNE
Cosmos 921 Rocket 4.4 17:43:20 10° SSE 17:45:21 24° SSE 17:45:21 24° SSE
NOSS 3-4 (A) 4.2 17:42:34 10° NW 17:48:41 41° NNE 17:50:45 34° ENE
NOSS 3-4 (C) 4.2 17:42:41 10° NW 17:48:46 41° NNE 17:50:49 34° ENE
COSMOS 2455 2.8 17:43:30 10° SW 17:49:33 86° SE 17:52:28 33° NE
Cosmos 1633 Rocket 3.3 17:45:20 10° NNW 17:49:42 70° W 17:54:03 10° S
Helios 1B 4.5 17:49:56 55° NE 17:50:39 65° ESE 17:54:58 10° S
ISS -1.2 17:48:39 10° W 17:51:07 19° SW 17:53:03 12° S
ATLAS 2AS CENTAUR R/B 3.7 17:44:25 10° WNW 17:51:24 37° N 17:54:01 29° NE
Cosmos 2279 Rocket 3.9 17:45:31 10° S 17:51:43 86° E 17:57:58 10° N
Cosmos 2360 Rocket 2.5 17:46:27 10° NNW 17:51:51 42° NE 17:52:12 41° NE
Cosmos 2266 Rocket 3.9 17:46:01 10° N 17:52:24 69° ENE 17:58:47 10° SSE
Cosmos 44 Rocket 3.5 17:47:53 10° NW 17:52:50 69° SW 17:56:04 20° SSE
YAOGAN 1 3.1 17:56:50 43° NNE 17:56:50 43° NNE 17:59:58 10° N
Meteor 1-11 Rocket 3.6 17:50:40 10° N 17:56:15 66° ENE 18:01:56 10° SSE
Cosmos 1666 3.6 17:52:50 10° NNW 17:56:27 48° W 18:00:01 10° S
CZ-4 R/B 3.3 17:59:30 19° N 17:59:30 19° N 18:00:43 10° N
USA 234 4.5 17:50:58 10° SSE 17:57:01 39° SW 18:03:05 10° WNW
Meteor 1-10 Rocket 4.2 17:53:25 10° S 17:59:01 57° E 18:00:37 42° NE
Cosmos 1151 Rocket 3.2 17:58:13 10° SSW 18:02:32 71° WNW 18:04:41 29° N
COSMOS 2428 4.0 18:00:08 10° NNW 18:03:52 24° NNE 18:03:52 24° NNE
SKYMED 3 4.5 18:06:03 59° N 18:06:52 86° WNW 18:11:12 10° SSW
USA 305 2.9 18:04:28 10° WNW 18:08:40 78° SSW 18:08:40 78° SSW
Cosmos 1900 4.5 18:07:32 10° SSW 18:11:48 56° SSE 18:11:48 56° SSE
Cosmos 2322 Rocket 2.1 18:06:51 10° NNW 18:12:36 77° ENE 18:13:54 54° SE
Okean O Rocket 2.4 18:09:42 10° S 18:14:04 53° W 18:18:27 10° NNW
Feng Yun 1-1 Rocket 4.4 18:09:19 10° SSE 18:15:16 84° WSW 18:21:09 10° NNW
Meteor 2-15 4.3 18:10:19 10° S 18:16:25 83° E 18:21:06 18° NNE
Cosmos 1980 Rocket 4.2 18:12:37 10° NW 18:17:21 28° WSW 18:22:04 10° SSW
Cosmos 1470 Rocket 4.1 18:15:24 10° NNW 18:19:47 59° W 18:24:11 10° S
Cosmos 1812 4.1 18:19:16 10° SW 18:22:50 36° WNW 18:23:53 30° NW
Cosmos 1328 Rocket 4.0 18:18:53 10° SSW 18:23:17 62° WNW 18:24:02 52° NNW
Spot 2 4.5 18:20:29 18° SSE 18:24:21 81° WSW 18:29:29 10° NNW
SKYMED 2 4.2 18:30:16 50° NW 18:30:46 53° WNW 18:35:00 10° SW
SL-16 R/B 2.5 18:25:19 10° NW 18:30:58 67° WSW 18:33:20 35° S
Cosmos 1655 Rocket 4.4 18:27:30 10° NNW 18:33:51 65° W 18:40:08 10° S
Cosmos 2237 Rocket 4.1 18:30:14 10° NNW 18:32:29 17° N 18:32:29 17° N
Cosmos 1570 Rocket 4.3 18:29:24 10° SW 18:34:36 63° WNW 18:35:28 54° NNW
Cosmos 2082 Rocket 2.8 18:31:33 10° SW 18:37:07 52° NW 18:38:46 39° N
ATLAS CENTAUR R/B 2.8 18:32:00 10° WSW 18:37:44 53° WNW 18:37:44 53° WNW
USA 306 4.1 18:36:39 10° WNW 18:39:34 40° W 18:39:34 40° W
Cosmos 2333 Rocket 3.1 18:39:00 10° NNW 18:42:44 37° N 18:42:44 37° N
SL-16 R/B 4.4 18:50:50 10° NNW 18:52:27 14° N 18:52:27 14° N
GEOS 3 Rocket 4.3 18:54:52 49° SW 18:55:12 50° SW 19:00:15 10° NW
Cosmos 1833 Rocket 4.4 18:52:52 10° W 18:57:33 26° NW 18:59:15 23° N
USA 267 3.3 19:03:55 69° N 19:03:59 69° NNW 19:10:28 10° W
Cosmos 2219 Rocket 3.6 18:59:31 10° NNW 19:02:19 29° NNW 19:02:19 29° NNW
CZ-2C R/B 4.0 19:03:18 24° NNW 19:05:31 35° WNW 19:10:10 10° SW
ATLAS CENTAUR R/B 4.3 19:14:40 10° NW 19:15:31 14° NNW 19:15:31 14° NNW
Lacrosse 5 rocket 4.3 19:19:27 10° W 19:20:27 14° WSW 19:20:27 14° WSW
Cosmos 2360 Rocket 3.6 19:30:33 10° NW 19:33:59 34° WNW 19:33:59 34° WNW
COSMOS 2455 4.2 19:30:45 10° W 19:35:38 33° NW 19:35:38 33° NW
NOSS 3-4 (A) 4.4 19:33:34 10° NW 19:38:11 49° NW 19:38:11 49° NW
NOSS 3-4 (C) 4.4 19:33:40 10° NW 19:38:16 49° NW 19:38:16 49° NW
ATLAS 2AS CENTAUR R/B 3.7 19:36:26 10° NW 19:41:27 41° NNW 19:41:27 41° NNW
Cosmos 2322 Rocket 4.2 19:51:42 10° NW 19:55:46 23° W 19:55:46 23° W
